Location: Sungai Bunut
(2.6333°N, 113.7333°E)
Time: 14:36:42
(UTC+00:00)

Vanguard 2 - All Passes

Search period start: 03 December 2023 00:00
Search period end: 13 December 2023 00:00
Orbit: 553 x 2922 km, 32.9° (Epoch: 02 December)

Date Brightness Start Highest point End Pass type
(mag) Time Alt. Az. Time Alt. Az. Time Alt. Az.
03 Dec - 00:07:28 10° WSW 00:09:26 13° SSW 00:11:28 10° S daylight
03 Dec - 06:42:47 10° S 06:47:41 13° SSE 06:53:20 10° SE daylight
03 Dec - 08:47:10 10° SSW 09:00:13 44° SE 09:16:33 10° ENE daylight
03 Dec - 10:56:24 10° WSW 11:12:57 82° NW 11:30:18 10° NE visible
03 Dec - 13:10:52 10° W 13:26:31 37° NNW 13:39:56 10° NNE visible
03 Dec - 15:33:22 10° NW 15:41:01 15° NNW 15:47:27 10° NNE visible
03 Dec - 20:03:53 10° NNW 20:07:57 16° NNE 20:11:10 10° ENE visible
03 Dec - 22:12:08 10° WNW 22:17:08 85° SW 22:21:05 10° SE daylight
04 Dec - 06:56:32 10° S 07:03:58 18° SE 07:13:10 10° ESE daylight
04 Dec - 09:02:21 10° SW 09:15:59 56° SE 09:33:15 10° ENE daylight
04 Dec - 11:12:24 10° WSW 11:28:51 68° NW 11:45:54 10° NE visible
04 Dec - 13:28:21 10° W 13:42:50 30° NNW 13:55:14 10° NNE visible
04 Dec - 15:52:07 10° NW 15:57:57 13° NNW 16:02:59 10° N visible
04 Dec - 18:11:17 10° N 18:12:29 10° N 18:13:37 10° NNE night (unlit)
04 Dec - 20:18:38 10° NNW 20:24:06 24° NNE 20:28:05 10° E visible
04 Dec - 22:28:04 10° WNW 22:32:40 42° SW 22:36:27 10° SE daylight
05 Dec - 07:10:58 10° SSW 07:19:58 24° SE 07:31:46 10° E daylight
05 Dec - 09:17:40 10° SW 09:31:43 69° SE 09:49:34 10° ENE daylight
05 Dec - 11:28:40 10° WSW 11:44:51 56° NNW 12:01:24 10° NE visible
05 Dec - 13:46:16 10° WNW 13:59:22 25° NNW 14:10:35 10° NNE visible
05 Dec - 16:10:14 10° NNW 16:14:59 12° N 16:19:08 10° NNE night (unlit)
05 Dec - 18:24:57 10° NNW 18:29:07 13° N 18:32:35 10° NE night (unlit)
05 Dec - 20:33:45 10° NW 20:40:05 38° NNE 20:44:26 10° E visible
05 Dec - 22:44:29 10° W 22:48:10 22° SW 22:51:22 10° SSE daylight
06 Dec - 07:25:40 10° SSW 07:35:46 32° SE 07:49:34 10° E daylight
06 Dec - 09:33:11 10° SW 09:47:27 85° SE 10:05:34 10° NE daylight
06 Dec - 11:45:15 10° W 12:00:58 45° NNW 12:16:49 10° NE visible
06 Dec - 14:04:30 10° WNW 14:16:07 21° NNW 14:26:05 10° NNE visible
06 Dec - 16:27:15 10° NNW 16:32:01 12° N 16:36:09 10° NNE night (unlit)
06 Dec - 18:39:36 10° NNW 18:45:36 18° NNE 18:50:07 10° ENE visible
06 Dec - 20:49:10 10° NW 20:55:54 65° NNE 21:00:22 10° ESE visible
06 Dec - 23:01:59 10° WSW 23:03:42 12° SW 23:05:19 10° SSW daylight
07 Dec - 07:40:36 10° SSW 07:51:25 43° SE 08:06:45 10° ENE daylight
07 Dec - 09:48:53 10° WSW 10:03:16 80° NW 10:21:22 10° NE daylight
07 Dec - 12:02:12 10° W 12:17:17 37° NNW 12:32:13 10° NE visible
07 Dec - 14:22:54 10° NW 14:33:05 18° NNW 14:41:49 10° NNE visible
07 Dec - 16:43:16 10° NNW 16:48:59 14° N 16:53:44 10° NNE night (unlit)
07 Dec - 18:54:34 10° NNW 19:01:56 25° NNE 19:07:02 10° ENE visible
07 Dec - 21:04:52 10° WNW 21:11:31 74° SW 21:15:58 10° SE visible
08 Dec - 05:51:21 10° S 05:56:25 15° SE 06:02:35 10° ESE daylight
08 Dec - 07:55:42 10° SW 08:07:01 55° SE 08:23:26 10° ENE daylight
08 Dec - 10:04:50 10° WSW 10:19:12 65° NNW 10:37:00 10° NE visible
08 Dec - 12:19:32 10° W 12:33:46 31° NNW 12:47:38 10° NNE visible
08 Dec - 14:41:06 10° NW 14:50:12 16° N 14:57:59 10° NNE visible
08 Dec - 16:58:46 10° NNW 17:05:49 16° N 17:11:22 10° NE night (unlit)
08 Dec - 19:09:43 10° NW 19:18:07 35° NNE 19:23:31 10° E visible
08 Dec - 21:20:55 10° WNW 21:26:59 42° SW 21:31:13 10° SSE visible
09 Dec - 06:05:17 10° S 06:12:12 21° SE 06:21:28 10° E daylight
09 Dec - 08:10:59 10° SW 08:22:36 70° SE 08:39:45 10° ENE daylight
09 Dec - 10:21:02 10° WSW 10:35:17 53° NNW 10:52:30 10° NE visible
09 Dec - 12:37:14 10° WNW 12:50:30 26° NNW 13:03:11 10° NNE visible
09 Dec - 14:58:44 10° NW 15:07:22 16° N 15:14:41 10° NNE visible
09 Dec - 17:14:03 10° NNW 17:22:30 20° NNE 17:28:43 10° ENE night (unlit)
09 Dec - 19:25:04 10° NW 19:34:06 52° NNE 19:39:37 10° ESE visible
09 Dec - 21:37:27 10° W 21:42:21 24° SW 21:46:04 10° SSE visible
10 Dec - 06:19:47 10° SSW 06:27:47 29° SE 06:39:19 10° E daylight
10 Dec - 08:26:28 10° SW 08:38:16 87° SE 08:55:46 10° NE daylight
10 Dec - 10:37:33 10° W 10:51:31 43° NNW 11:07:58 10° NE visible
10 Dec - 12:55:12 10° WNW 13:07:27 22° NNW 13:18:56 10° NNE visible
10 Dec - 15:15:39 10° NNW 15:24:31 17° N 15:31:51 10° NE visible
10 Dec - 17:29:18 10° NNW 17:39:01 26° NNE 17:45:41 10° ENE night (unlit)
10 Dec - 19:40:39 10° NW 19:49:53 78° NNE 19:55:23 10° ESE visible
10 Dec - 21:54:52 10° WSW 21:57:44 14° SW 22:00:12 10° S visible
11 Dec - 06:34:36 10° SSW 06:43:15 40° SE 06:56:30 10° ENE daylight
11 Dec - 08:42:07 10° WSW 08:54:03 76° NW 09:11:33 10° NE daylight
11 Dec - 10:54:24 10° W 11:07:57 35° NNW 11:23:25 10° NE visible
11 Dec - 13:13:13 10° NW 13:24:35 20° N 13:35:03 10° NNE visible
11 Dec - 15:31:53 10° NNW 15:41:34 19° N 15:49:15 10° NE visible
11 Dec - 17:44:34 10° NW 17:55:21 34° NNE 18:02:18 10° E visible
11 Dec - 19:56:28 10° WNW 20:05:28 70° SW 20:10:52 10° SE visible
12 Dec - 04:47:37 10° SSE 04:49:21 11° SE 04:51:15 10° SE daylight
12 Dec - 06:49:38 10° SW 06:58:42 54° SE 07:13:10 10° ENE daylight
12 Dec - 08:58:02 10° WSW 09:10:00 61° NNW 09:27:10 10° NE daylight
12 Dec - 11:11:37 10° WNW 11:24:35 29° NNW 11:38:57 10° NNE visible
12 Dec - 13:31:00 10° NW 13:41:50 19° N 13:51:36 10° NE visible
12 Dec - 15:47:41 10° NNW 15:58:27 22° NNE 16:06:37 10° ENE night (unlit)
12 Dec - 17:59:55 10° NW 18:11:30 46° NNE 18:18:33 10° E visible
12 Dec - 20:12:37 10° WNW 20:20:52 44° SW 20:26:04 10° SSE visible
